Regional Weather Roundup
Issued by NWS

Home | Current Version | Previous Version | Text Only | Print | Product List | Glossary Off
Versions: 1 2 3 4 5 6 7 8 9 10 11 12 13 14 15 16 17 18 19 20 21 22 23 24 25 26 27 28 29 30 31 32 33 34 35 36 37 38 39 40 41 42 43 44 45 46 47 48 49 50

000
ASUS44 KMEG 242300
RWRTN
TENNESSEE HOURLY STATE WEATHER ROUNDUP
NATIONAL WEATHER SERVICE MEMPHIS TN
600 PM CDT FRI APR 24 2015

TNZ002-004-019-021-049-052-054-088>092-250000-
WEST TENNESSEE

CITY           SKY/WX    TMP DP  RH WIND       PRES   REMARKS
MEMPHIS INTL   LGT RAIN  58  53  84 SE8       29.88F
NWS MEMPHIS      N/A     56 N/A N/A MISG        N/A
JACKSON        LGT RAIN  56  52  86 VRB5      29.91F
DYERSBURG      CLOUDY    55  39  54 SE12      29.89F
UNION CITY     PTSUNNY   55  32  41 NE5       29.91S
PARIS          CLOUDY    55  46  71 SE7       29.92F
LEXINGTON      CLOUDY    55  52  88 E3        29.94F
SAVANNAH       PTSUNNY   57  32  38 SE5       29.96F
$$

TNZ008-025-027-028-033-062-065-066-250000-
NORTH MIDDLE TENNESSEE

CITY           SKY/WX    TMP DP  RH WIND       PRES   REMARKS
NASHVILLE      CLOUDY    62  38  40 S6        29.96F
CLARKSVILLE    CLOUDY    60  44  55 E3        29.96S
COOKEVILLE     MOSUNNY   66  43  42 CALM      29.97S
CROSSVILLE     CLOUDY    63  30  28 S5        29.99F
$$

TNZ061-075-076-078-094-096-097-250000-
SOUTH MIDDLE TENNESSEE

CITY           SKY/WX    TMP DP  RH WIND       PRES   REMARKS
FAYETTEVILLE     N/A     66  39  37 S5        29.96S
TULLAHOMA      PTSUNNY   66  34  30 CALM      29.97F
WINCHESTER     MOSUNNY   70  39  32 CALM      29.96F
MCMINNVILLE    MOSUNNY   66  37  34 CALM      29.97F
COLUMBIA       CLOUDY    57  32  38 S3        29.98R
SHELBYVILLE    CLOUDY    66  41  39 NW5       29.98S
$$

TNZ017-018-042-046-047-250000-
NORTHEAST TENNESSEE

CITY           SKY/WX    TMP DP  RH WIND       PRES   REMARKS
TRI CITIES     PTSUNNY   63  27  25 CALM      29.99S
ELIZABETHTON   CLEAR     61  27  27 W5        29.99S
$$

TNZ012-013-036-069-073-074-250000-
CENTRAL EAST TENNESSEE

CITY           SKY/WX    TMP DP  RH WIND       PRES   REMARKS
KNOXVILLE      CLOUDY    63  31  30 CALM      29.98F
OAK RIDGE      CLOUDY    66  27  23 S3        29.99F
GATLINBURG     CLEAR     63  30  29 CALM      30.00R
$$

TNZ083-085-099-250000-
SOUTHEAST TENNESSEE

CITY           SKY/WX    TMP DP  RH WIND       PRES   REMARKS
CHATTANOOGA    CLOUDY    70  31  23 CALM      29.98F
$$

SKY/WX REPORTED AS FAIR MEANS FEW OR NO CLOUDS BELOW
12 THOUSAND FEET.



USA.gov is the U.S. government's official web portal to all federal, state and local government web resources and services.